Location: ??????
(38.0677°N, 22.9870°E)
Time: 17:33:10
(UTC+00:00)

Cosmos 405 Rocket - Pass Details

Date: 23 May 2024
Orbit: 456 x 502 km, 81.3° (Epoch: 24 June)

Event Time Altitude Azimuth Distance (km) Brightness Sun altitude
Rises 01:38:50 0° 353° (N) 2,519 6.7 -15.7°
Reaches altitude 10° 01:40:55 10° 355° (N) 1,646 5.8 -15.4°
Maximum altitude 01:44:31 74° 80° (E) 503 2.7 -14.9°
Drops below altitude 10° 01:48:09 10° 167° (SSE) 1,661 5.0 -14.4°
Enters shadow 01:48:49 - 168° (SSE) 1,940 5.3 -14.3°
